map of MHQ home
Great Circle Mapper logo
MHQ - Airport
Location
City:  Mariehamn, Åland Islands, Ahvenanmaan maakunta (Landskapet Åland (Åland)), Finland
Near (Alt.):Maarianhamina, Jomala
Name:Mariehamn Airport
ICAO:EFMA
IATA:MHQ

Details
Type:Airport (Aerodrome, Airfield)
Use:Public/Civil, International (customs port of entry)
Latitude:60°07'20"N (60.122203)
Longitude:19°53'53"E (19.898156)
Datum:WGS 1984
Elevation:17 ft (5 m)
Variation:6.71°E (WMM2015 magnetic declination)
0.16° annual change
Runways:1
Longest:6243 × 197 ft (1903 × 60 m), paved

Time
Time Zone:UTC+2 (DST+3)
Local Time:

Weather
METAR:EFMA 010120Z AUTO 01003KT CAVOK 11/10 Q1023

Related Locations
Nearby:
Farthest:CHT: 11113 mi / 17885 km
Waitangi [Tuuta], Chatham Islands, NZ

Find:

   beyond  
but within

Other Information
Maps:
NOTAMs:
Links:
Sources:

  
flag of Finland
flag of Åland Islands
  

Sectional Chart

Flight Planning
at skyvector.com

Satellite Image

Google Maps Satellite view

 

Copyright © 2004-2016 Karl L. Swartz. All rights reserved.
The Great Circle Mapper name and logo are trademarks of the Great Circle Mapper.
All other trademarks mentioned herein belong to their respective owners.
Please see credits for attibutions and further copyright information.

  Follow gcmap on Facebook Follow gcmap on Twitter Follow gcmap on Google+ GCmap on LinkedIn

hCard Microformat

Geo Microformat